HIBUK LLHA-LLRD

Flight info

Callsign HIBUK
Flight time N/A
Altitude 2500
Route GALIM
Aircraft AS65/L-SDGRWY/XPDR

Departure

Time 2026-05-05 11:13
Airport Uri Michaeli Haifa International Airport (LLHA)

Arrival

Time N/A
Airport Ramat David Air Base (LLRD)
Time Latitude Longitude Altitude Speed Heading
2026-05-05 11:09 32.81142 35.04396 24 ft 0 kts 258°
2026-05-05 11:09 32.81134 35.04363 23 ft 12 kts 253°
2026-05-05 11:10 32.81157 35.04314 30 ft 5 kts 340°
2026-05-05 11:10 32.81367 35.04231 82 ft 63 kts 341°
2026-05-05 11:10 32.81875 35.03989 166 ft 92 kts 334°
2026-05-05 11:10 32.82486 35.03595 304 ft 109 kts 332°
2026-05-05 11:11 32.83141 35.03123 462 ft 116 kts 327°
2026-05-05 11:11 32.83788 35.02569 467 ft 131 kts 324°
2026-05-05 11:11 32.84565 35.01862 464 ft 138 kts 323°
2026-05-05 11:11 32.85329 35.01145 476 ft 141 kts 322°
2026-05-05 11:12 32.86103 35.00406 470 ft 144 kts 322°
2026-05-05 11:12 32.86881 34.99654 509 ft 143 kts 322°
2026-05-05 11:12 32.87646 34.98905 557 ft 142 kts 321°
2026-05-05 11:12 32.88404 34.98151 599 ft 142 kts 321°
2026-05-05 11:13 32.89157 34.97391 640 ft 142 kts 320°
2026-05-05 11:13 32.89893 34.96635 678 ft 142 kts 320°
2026-05-05 11:13 32.90633 34.95861 702 ft 141 kts 320°
2026-05-05 11:13 32.91402 34.95284 598 ft 120 kts 359°
2026-05-05 11:14 32.91953 34.95582 353 ft 59 kts 56°
2026-05-05 11:14 32.92059 34.95783 235 ft 5 kts 49°
2026-05-05 11:14 32.92071 34.95818 110 ft 4 kts 47°
2026-05-05 11:14 32.92092 34.95850 63 ft 4 kts 53°
2026-05-05 11:15 32.92098 34.95858 47 ft 1 kts 50°
2026-05-05 11:15 32.92101 34.95862 40 ft 0 kts 49°
2026-05-05 11:17 32.92097 34.95848 52 ft 6 kts 47°
2026-05-05 11:17 32.92064 34.95790 160 ft 8 kts 119°
2026-05-05 11:17 32.91965 34.95814 248 ft 39 kts 124°
2026-05-05 11:17 32.91560 34.96148 180 ft 93 kts 146°
2026-05-05 11:18 32.90966 34.96691 140 ft 119 kts 145°
2026-05-05 11:18 32.90282 34.97325 173 ft 128 kts 145°
2026-05-05 11:18 32.89584 34.97973 315 ft 126 kts 145°
2026-05-05 11:18 32.88894 34.98615 441 ft 127 kts 144°
2026-05-05 11:19 32.88199 34.99263 556 ft 127 kts 144°
2026-05-05 11:19 32.87502 34.99911 673 ft 127 kts 144°
2026-05-05 11:19 32.86805 35.00560 783 ft 127 kts 144°
2026-05-05 11:19 32.86053 35.01037 841 ft 125 kts 176°
2026-05-05 11:20 32.85258 35.00663 799 ft 129 kts 226°
2026-05-05 11:20 32.84631 34.99880 669 ft 135 kts 229°
2026-05-05 11:20 32.84043 34.99095 504 ft 119 kts 232°
2026-05-05 11:20 32.83643 34.98673 464 ft 28 kts 212°
2026-05-05 11:21 32.83600 34.98664 383 ft 3 kts 205°
2026-05-05 11:21 32.83577 34.98636 261 ft 5 kts 204°
2026-05-05 11:21 32.83530 34.98593 142 ft 10 kts 205°
2026-05-05 11:21 32.83531 34.98593 30 ft 5 kts 208°
2026-05-05 11:22 32.83530 34.98591 13 ft 0 kts 220°
2026-05-05 11:22 32.83529 34.98590 13 ft 1 kts 219°
2026-05-05 11:23 32.83523 34.98585 81 ft 3 kts 219°
2026-05-05 11:23 32.83488 34.98614 277 ft 11 kts 158°
2026-05-05 11:23 32.83601 34.98724 200 ft 42 kts 312°
2026-05-05 11:23 32.83721 34.98423 197 ft 41 kts 295°
2026-05-05 11:24 32.83780 34.97981 137 ft 73 kts 273°
2026-05-05 11:24 32.83715 34.97204 151 ft 112 kts 259°
2026-05-05 11:24 32.83465 34.96301 329 ft 112 kts 242°
2026-05-05 11:24 32.82969 34.95497 375 ft 133 kts 229°
2026-05-05 11:25 32.82100 34.95065 496 ft 142 kts 193°
2026-05-05 11:25 32.81202 34.94897 526 ft 151 kts 191°
2026-05-05 11:25 32.80145 34.94681 547 ft 159 kts 196°
2026-05-05 11:25 32.78937 34.94310 333 ft 172 kts 189°
2026-05-05 11:26 32.78250 34.94201 672 ft 110 kts 186°
2026-05-05 11:26 32.78072 34.94194 627 ft 43 kts 188°
2026-05-05 11:26 32.77546 34.94059 759 ft 107 kts 194°
2026-05-05 11:26 32.76740 34.93909 911 ft 119 kts 186°
2026-05-05 11:27 32.75929 34.93914 1200 ft 119 kts 176°
2026-05-05 11:27 32.75356 34.93813 1245 ft 126 kts 204°
2026-05-05 11:27 32.74466 34.93501 785 ft 154 kts 195°
2026-05-05 11:27 32.73384 34.93302 700 ft 160 kts 190°
2026-05-05 11:28 32.72274 34.93088 660 ft 162 kts 192°
2026-05-05 11:28 32.71163 34.92858 648 ft 162 kts 192°
2026-05-05 11:28 32.70049 34.92638 621 ft 163 kts 192°
2026-05-05 11:28 32.68929 34.92423 594 ft 164 kts 192°
2026-05-05 11:29 32.67794 34.92215 596 ft 165 kts 191°
2026-05-05 11:29 32.66652 34.92017 598 ft 166 kts 191°
2026-05-05 11:29 32.65508 34.91829 593 ft 167 kts 190°
2026-05-05 11:29 32.64372 34.91654 582 ft 167 kts 190°
2026-05-05 11:30 32.63236 34.91488 644 ft 164 kts 190°
2026-05-05 11:30 32.62108 34.91308 684 ft 163 kts 191°
2026-05-05 11:30 32.60984 34.91097 713 ft 164 kts 192°
2026-05-05 11:30 32.59860 34.90853 731 ft 165 kts 193°
2026-05-05 11:31 32.58728 34.90626 739 ft 165 kts 192°
2026-05-05 11:31 32.57589 34.90411 740 ft 166 kts 191°
2026-05-05 11:31 32.56447 34.90201 737 ft 167 kts 191°
2026-05-05 11:31 32.55299 34.89994 728 ft 167 kts 191°
2026-05-05 11:32 32.54168 34.89768 717 ft 167 kts 193°
2026-05-05 11:32 32.53032 34.89476 702 ft 167 kts 196°
2026-05-05 11:32 32.51912 34.89173 683 ft 168 kts 195°
2026-05-05 11:32 32.50787 34.88889 735 ft 164 kts 194°
2026-05-05 11:33 32.49668 34.88629 773 ft 164 kts 193°
2026-05-05 11:33 32.48545 34.88390 798 ft 164 kts 192°
2026-05-05 11:33 32.47415 34.88171 814 ft 165 kts 191°
2026-05-05 11:33 32.46277 34.87971 821 ft 166 kts 191°
2026-05-05 11:34 32.45133 34.87789 823 ft 166 kts 190°
2026-05-05 11:34 32.44009 34.87570 825 ft 166 kts 198°
2026-05-05 11:34 32.42904 34.87160 818 ft 167 kts 199°
2026-05-05 11:34 32.41781 34.86807 802 ft 167 kts 196°
2026-05-05 11:35 32.40648 34.86478 784 ft 168 kts 196°
2026-05-05 11:35 32.39523 34.86117 767 ft 168 kts 198°
2026-05-05 11:35 32.38395 34.85755 747 ft 168 kts 198°
2026-05-05 11:35 32.37266 34.85399 724 ft 168 kts 197°
2026-05-05 11:36 32.36133 34.85048 699 ft 168 kts 197°
2026-05-05 11:36 32.35015 34.84708 678 ft 168 kts 197°
2026-05-05 11:36 32.33879 34.84369 660 ft 168 kts 197°
2026-05-05 11:36 32.32760 34.84016 734 ft 162 kts 197°
2026-05-05 11:37 32.31689 34.83715 914 ft 156 kts 194°
2026-05-05 11:37 32.30637 34.83491 1029 ft 153 kts 191°
2026-05-05 11:37 32.29557 34.83337 1008 ft 158 kts 189°
2026-05-05 11:37 32.28450 34.83110 1054 ft 161 kts 194°
2026-05-05 11:38 32.27373 34.82810 1092 ft 162 kts 198°
2026-05-05 11:38 32.26319 34.82430 1122 ft 163 kts 199°
2026-05-05 11:38 32.25223 34.82069 1141 ft 164 kts 197°
2026-05-05 11:38 32.24093 34.81758 1154 ft 165 kts 195°
2026-05-05 11:39 32.22966 34.81428 1078 ft 169 kts 197°
2026-05-05 11:39 32.21813 34.81120 1013 ft 171 kts 195°
2026-05-05 11:39 32.20870 34.80855 973 ft 171 kts 197°
2026-05-05 11:39 32.19743 34.80494 918 ft 171 kts 199°
2026-05-05 11:40 32.18602 34.80078 853 ft 171 kts 200°
2026-05-05 11:40 32.17478 34.79601 788 ft 172 kts 204°
2026-05-05 11:40 32.16385 34.79030 721 ft 172 kts 208°
2026-05-05 11:40 32.15325 34.78381 651 ft 172 kts 210°
2026-05-05 11:41 32.14251 34.77794 670 ft 168 kts 204°
2026-05-05 11:41 32.13151 34.77405 761 ft 163 kts 197°
2026-05-05 11:41 32.12033 34.77095 716 ft 167 kts 195°
2026-05-05 11:41 32.10884 34.76824 671 ft 169 kts 193°
2026-05-05 11:42 32.09723 34.76591 623 ft 170 kts 192°
2026-05-05 11:42 32.08573 34.76262 583 ft 170 kts 201°
2026-05-05 11:42 32.07507 34.75716 671 ft 163 kts 208°
2026-05-05 11:42 32.06497 34.75126 813 ft 158 kts 209°
2026-05-05 11:43 32.05544 34.74532 942 ft 156 kts 211°
2026-05-05 11:43 32.04598 34.73925 1087 ft 154 kts 210°
2026-05-05 11:43 32.03604 34.73382 1048 ft 164 kts 205°
2026-05-05 11:43 32.02505 34.72894 902 ft 172 kts 201°
2026-05-05 11:44 32.01344 34.72478 739 ft 176 kts 198°
2026-05-05 11:44 32.00141 34.72171 581 ft 177 kts 185°
2026-05-05 11:44 31.99059 34.72181 632 ft 170 kts 183°
2026-05-05 11:44 31.97875 34.72082 541 ft 172 kts 189°
2026-05-05 11:45 31.96708 34.71830 449 ft 173 kts 196°
2026-05-05 11:45 31.95570 34.71399 463 ft 169 kts 205°
2026-05-05 11:45 31.94510 34.70834 491 ft 167 kts 205°
2026-05-05 11:45 31.93429 34.70352 507 ft 166 kts 203°
2026-05-05 11:46 31.92353 34.69900 429 ft 156 kts 198°
2026-05-05 11:46 31.91397 34.69740 317 ft 116 kts 172°
2026-05-05 11:46 31.91041 34.69959 340 ft 15 kts 138°
2026-05-05 11:46 31.91017 34.69986 235 ft 5 kts 134°
2026-05-05 11:47 31.90980 34.70008 120 ft 8 kts 135°
2026-05-05 11:47 31.90976 34.70032 20 ft 0 kts 105°